Regional Weather Roundup
Issued by NWS Newport/Morehead, NC

Current Version | Previous Version | Text Only | Print | Product List | Glossary Off
Versions: 1 2 3 4 5 6 7 8 9 10 11 12 13 14 15 16 17 18 19 20 21 22 23 24 25 26 27 28 29 30 31 32 33 34 35 36 37 38 39 40 41 42 43 44 45 46 47 48 49 50

000
ASUS42 KMHX 231422
RWRMHX
WEATHER ROUNDUP FOR EASTERN NORTH CAROLINA
NATIONAL WEATHER SERVICE NEWPORT/MOREHEAD CITY NC
1000 AM EDT TUE SEP 23 2014

NOTE: "FAIR" INDICATES FEW OR NO CLOUDS BELOW 12,000 FEET
WITH NO SIGNIFICANT WEATHER AND/OR OBSTRUCTIONS TO VISIBILITY

NCZ015>017-031-032-045>047-102-103-231500-
NORTH COAST

CITY           SKY/WX    TMP DP  RH WIND       PRES   REMARKS
EDENTON        CLOUDY    62  54  76 NE7       30.28R
ELIZABETH CITY CLOUDY    63  55  75 N12       30.27R
KITTY HAWK     CLOUDY    68  57  66 NE7       30.24R
MANTEO         CLOUDY    68  58  68 NE13      30.25R

$$

NCZ045>047-081-094-103-104-231500-
CENTRAL COAST

CITY           SKY/WX    TMP DP  RH WIND       PRES   REMARKS
FRISCO         CLOUDY    69  61  75 NE10G21   30.20R
SWANQUARTER      N/A     68 N/A N/A NE7G15    30.21R

$$

NCZ095-097-098-100-101-231500-
SOUTHERN COAST

CITY           SKY/WX    TMP DP  RH WIND       PRES   REMARKS
BEAUFORT       CLOUDY    70  61  73 NE10G20   30.20R
CEDAR ISLAND     N/A     70 N/A N/A VRB24     30.27R
JACKSONVILLE   CLOUDY    65  58  78 N14       30.21R
NEWPORT        NOT AVBL
PINEY ISLAND   CLOUDY    72  60  66 NE17G25   30.21R
WILMINGTON     LGT RAIN  64  61  90 N12       30.20R


$$

NCZ011>013-027>030-043-044-078>080-089-090>093-098-231500-
COASTAL PLAIN

CITY           SKY/WX    TMP DP  RH WIND       PRES   REMARKS
AHOSKIE        CLOUDY    58  51  76 N5        30.31R
CLINTON        CLOUDY    61  53  75 N8        30.28R
ELIZABETHTOWN  CLOUDY    63  55  75 N3        30.26R
GOLDSBORO      CLOUDY    60  55  82 VRB5      30.26R
GREENVILLE     CLOUDY    61  52  72 N7        30.29R
HAVELOCK       CLOUDY    68  58  70 N14       30.23R
KENANSVILLE    CLOUDY    61  52  72 N6        30.28R
KINSTON        CLOUDY    61  52  72 N9        30.27R
NEW BERN       CLOUDY    66  57  72 N12       30.25R
RICHLANDS      CLOUDY    63  54  72 N9G17     30.24R
ROANOKE RAPIDS NOT AVBL
ROCKY MOUNT    CLOUDY    61  49  64 N12       30.30R
WASHINGTON     CLOUDY    60  54  79 N8        30.27R
WHITEVILLE     LGT RAIN  64  60  88 N7        30.23R

$$

AMZ130-135-150-152-154-156-158-170-250-252-270-ANZ085-086-088-633-658-670-231500-
MARINE OBSERVATIONS

STATION/POSITION TIME  TEMP    WIND        PRES    WAVE   SWELL
                       AIR SEA DIR/SP/G            HT/PER HT/PER
                 (UTC) (F)     (DEG/KT/KT) (MB)    (FT/S) (FT/S)
CHESAPEAKE LIGHT 1400   64      20/ 18/ 20 1025.6
BUOY 44014       1400   69 76   40/ 12/ 14 1023.8    4/ 6   3/ 6
DUCK             1400   68 74   40/ 16/ 17 1023.9
2E DUCK          1400                        N/A     4/ 6
OREGON INLET     1400   70 73   30/ 14/ 19 1023.5
BUOY 44095       1400      74                N/A     6/ 5
20E OREGON INLET NOT AVBL
HATTERAS CG      NOT AVBL
DIAMOND BUOY     1400   75      10/ 21/ 25 1021.5    6/ 6
CAPE LOOKOUT     1400   72      30/ 21/ 24 1022.1
BEAUFORT LAB     1400   69 76   30/ 10/ 12 1022.0
30 SE NEW RIVER  1400   75 82   40/ 23/ 29 1020.2    7/ 7
5 SE WRIGHTSVILL 1400   68 79   30/ 17/ 21   N/A
BUOY 41002       1329   76 81   10/  8/ 12 1019.9    3/ 7   3/ 7
BUOY 41004       1400   75 81   60/ 17/ 21 1019.2    4/ 5   2/ 9

$$


USA.gov is the U.S. government's official web portal to all federal, state and local government web resources and services.